Milford, UT

8:17 PM MST on February 27, 2017 (GMT -0700)
Milford Municipal

Weather History for KMLF - May, 2014

Change the Weather History Date:

Sunday, May 11, 2014

  Actual Average Record
Temperature  
Mean Temperature 44 °F -  
Max Temperature 54 °F 71 °F 88 °F (2007)
Min Temperature 33 °F 36 °F 28 °F (2006)
Degree Days  
Heating Degree Days 22    
Moisture  
Dew Point 33 °F    
Average Humidity 83    
Maximum Humidity 100    
Minimum Humidity 26    
Precipitation  
Precipitation 0.39 in - - ()
Sea Level Pressure  
Sea Level Pressure 29.82 in    
Wind  
Wind Speed 18 mph (North)    
Max Wind Speed 33 mph    
Max Gust Speed 47 mph    
Visibility 5 miles    
Events Fog , Rain , Snow    
Averages and records for this station are not official NWS values.
T = Trace of Precipitation, MM = Missing Value Source: NWS Daily Summary

Daily Weather History Graph

Daily Weather History Graph

Search for Another Location

Airport or City:

Trip Planner

Search our weather history database for the weather conditions in past years. The results will help you decide how hot, cold, wet, or windy it might be!

Date:

Astronomy

May. 11, 2014 Rise Set
Actual Time 6:24 AM MDT 8:33 PM MDT
Civil Twilight 5:54 AM MDT 9:02 PM MDT
Nautical Twilight 5:18 AM MDT 9:38 PM MDT
Astronomical Twilight 4:39 AM MDT 10:18 PM MDT
Moon 5:35 PM MDT (5/11) 4:28 AM MDT (5/11)
Length of Visible Light 15h 07m
Length of Day
14h 08m
Waxing Gibbous, 89% of the Moon is Illuminated
May 11
Waxing Gibbous
May 14
Full
May 21
Last Quarter
May 28
New
Jun 5
First Quarter

Hourly Weather History & Observations

Time (MDT) Temp. Windchill Dew Point Humidity Pressure Visibility Wind Dir Wind Speed Gust Speed Precip Events Conditions
12:42 AM 39.9 °F 32.5 °F 37.0 °F 89% 29.82 in 10.0 mi NNW 12.7 mph - 0.00 in Rain Light Rain
12:52 AM 39.9 °F 30.2 °F 37.0 °F 89% 29.72 in 10.0 mi North 20.7 mph 26.5 mph 0.00 in Rain Light Rain
1:47 AM 37.9 °F 28.5 °F 35.1 °F 89% 29.80 in 10.0 mi North 17.3 mph - 0.05 in Rain Light Rain
1:52 AM 39.0 °F 29.3 °F 36.0 °F 89% 29.70 in 10.0 mi North 19.6 mph - 0.05 in Rain Light Rain
2:52 AM 39.0 °F 29.0 °F 36.0 °F 89% 29.66 in 10.0 mi North 20.7 mph - 0.02 in Rain Light Rain
3:14 AM 37.9 °F 27.9 °F 35.1 °F 89% 29.77 in 10.0 mi North 19.6 mph - 0.00 in Rain Light Rain
3:47 AM 36.0 °F 25.3 °F 34.0 °F 93% 29.76 in 8.0 mi North 19.6 mph - 0.02 in Rain Rain
3:52 AM 36.0 °F 25.3 °F 34.0 °F 93% 29.66 in 7.0 mi North 19.6 mph - 0.03 in Rain Rain
4:52 AM 36.0 °F 26.0 °F 34.0 °F 93% 29.65 in 6.0 mi North 17.3 mph - 0.05 in Rain Rain
5:19 AM 34.0 °F 23.0 °F 33.1 °F 96% 29.75 in 2.5 mi North 18.4 mph - 0.03 in Snow Light Snow
5:28 AM 34.0 °F 22.4 °F 33.1 °F 96% 29.75 in 1.8 mi North 20.7 mph - 0.04 in Snow Light Snow
5:42 AM 34.0 °F 23.4 °F 33.1 °F 96% 29.75 in 1.5 mi North 17.3 mph - 0.05 in Snow Light Snow
5:52 AM 34.0 °F 23.0 °F 33.1 °F 96% 29.65 in 1.8 mi North 18.4 mph 25.3 mph 0.06 in Snow Light Snow
6:01 AM 34.0 °F 22.1 °F 33.1 °F 96% 29.75 in 1.5 mi North 21.9 mph 28.8 mph 0.00 in Snow Light Snow
6:07 AM 34.0 °F 22.1 °F 32.0 °F 92% 29.75 in 1.2 mi North 21.9 mph 28.8 mph 0.01 in Snow Light Snow
6:28 AM 33.1 °F 23.0 °F 32.0 °F 96% 29.76 in 0.8 mi North 15.0 mph - 0.06 in Snow Light Snow
6:34 AM 33.1 °F 23.0 °F 32.0 °F 96% 29.76 in 1.0 mi North 15.0 mph - 0.06 in Snow Light Snow
6:46 AM 33.1 °F 23.4 °F 32.0 °F 96% 29.76 in 0.8 mi North 13.8 mph - 0.08 in Snow Light Snow
6:52 AM 33.1 °F 23.9 °F 32.0 °F 96% 29.70 in 0.5 mi North 12.7 mph - 0.09 in Fog , Snow Snow
7:43 AM 34.0 °F 24.6 °F 32.0 °F 92% 29.77 in 1.0 mi North 13.8 mph - 0.07 in Snow Light Snow
7:52 AM 34.0 °F 23.8 °F 32.0 °F 92% 29.73 in 1.2 mi North 16.1 mph - 0.07 in Snow Light Snow
7:58 AM 34.0 °F 23.0 °F 32.0 °F 92% 29.77 in 1.8 mi North 18.4 mph - 0.01 in Snow Light Snow
8:09 AM 34.0 °F 22.7 °F 32.0 °F 92% 29.77 in 1.5 mi North 19.6 mph - 0.01 in Snow Light Snow
8:24 AM 34.0 °F 23.0 °F 32.0 °F 92% 29.78 in 1.5 mi North 18.4 mph 29.9 mph 0.01 in Snow Light Snow
8:28 AM 34.0 °F 22.7 °F 33.1 °F 96% 29.78 in 2.0 mi North 19.6 mph 29.9 mph 0.02 in Snow Light Snow
8:36 AM 34.0 °F 23.0 °F 33.1 °F 96% 29.78 in 2.5 mi North 18.4 mph - 0.02 in Snow Light Snow
8:52 AM 34.0 °F 23.0 °F 33.1 °F 96% 29.76 in 1.8 mi North 18.4 mph - 0.02 in Snow Light Snow
9:00 AM 34.0 °F 23.4 °F 33.1 °F 96% 29.79 in 2.0 mi North 17.3 mph 23.0 mph 0.01 in Snow Light Snow
10:14 AM 33.1 °F 23.0 °F 32.0 °F 96% 29.82 in 0.5 mi North 15.0 mph - 0.02 in Fog Fog
10:35 AM 33.1 °F 23.0 °F 33.1 °F 100% 29.83 in 0.5 mi North 15.0 mph - 0.06 in Fog , Snow Snow
10:52 AM 33.1 °F 24.4 °F 33.1 °F 100% 29.84 in 0.5 mi North 11.5 mph - 0.08 in Fog , Snow Snow
11:52 AM 33.8 °F 24.3 °F 33.8 °F 100% 29.87 in 0.5 mi North 13.8 mph - N/A Fog , Snow Snow
12:05 PM 35.1 °F 23.3 °F 33.1 °F 92% 29.87 in 1.5 mi North 23.0 mph 32.2 mph 0.02 in Snow Light Snow
12:09 PM 35.1 °F 23.3 °F 33.1 °F 92% 29.87 in 2.0 mi North 23.0 mph - 0.02 in Snow Light Snow
12:16 PM 35.1 °F 23.0 °F 33.1 °F 92% 29.87 in 3.0 mi North 24.2 mph 29.9 mph 0.02 in Snow Light Snow
12:27 PM 35.1 °F 22.7 °F 33.1 °F 92% 29.87 in 2.5 mi North 25.3 mph 35.7 mph 0.04 in Snow Light Snow
12:33 PM 36.0 °F 23.7 °F 33.1 °F 89% 29.87 in 3.0 mi NNW 26.5 mph 35.7 mph 0.04 in Snow Light Snow
12:40 PM 36.0 °F 23.5 °F 34.0 °F 93% 29.87 in 5.0 mi North 27.6 mph 36.8 mph 0.06 in Rain Light Rain
12:44 PM 37.0 °F 24.9 °F 34.0 °F 89% 29.87 in 7.0 mi NNW 27.6 mph 36.8 mph 0.06 in Rain Light Rain
12:52 PM 37.0 °F 24.7 °F 34.0 °F 89% 29.86 in 8.0 mi North 28.8 mph 39.1 mph 0.06 in Rain Light Rain
1:34 PM 39.9 °F 29.2 °F 33.1 °F 77% 29.89 in 10.0 mi North 25.3 mph 38.0 mph 0.01 in   Overcast
1:52 PM 41.0 °F 30.9 °F 33.1 °F 73% 29.87 in 10.0 mi North 24.2 mph 36.8 mph 0.01 in   Overcast
2:52 PM 42.8 °F 32.3 °F 33.8 °F 70% 29.93 in 10.0 mi North 29.9 mph 47.2 mph N/A Rain Light Rain
3:52 PM 50.0 °F - 30.0 °F 46% 29.88 in 10.0 mi North 33.4 mph 47.2 mph 0.00 in   Overcast
4:52 PM 53.1 °F - 30.0 °F 41% 29.87 in 10.0 mi North 31.1 mph 42.6 mph N/A   Scattered Clouds
5:52 PM 53.1 °F - 28.0 °F 38% 29.90 in 10.0 mi North 27.6 mph 40.3 mph N/A   Partly Cloudy
6:52 PM 52.0 °F - 28.0 °F 40% 29.91 in 10.0 mi North 23.0 mph 34.5 mph N/A   Overcast
7:52 PM 51.1 °F - 28.0 °F 41% 29.93 in 10.0 mi North 13.8 mph - N/A   Partly Cloudy
8:52 PM 46.0 °F 43.9 °F 33.1 °F 61% 29.98 in 10.0 mi ENE 4.6 mph - N/A   Overcast
9:52 PM 43.0 °F 41.3 °F 33.1 °F 68% 30.02 in 10.0 mi North 3.5 mph - N/A   Partly Cloudy
10:52 PM 41.0 °F 34.7 °F 30.9 °F 67% 30.05 in 10.0 mi NW 10.4 mph - N/A   Partly Cloudy
11:52 PM 37.0 °F - 30.0 °F 76% 30.09 in 10.0 mi Calm Calm - N/A   Scattered Clouds